This demonstration page uses our WeatherBlox Daily Observations layout. Learn more.

Left ArrowRight Arrow

40.92945, -100.16068

Hourly Observations for November 12, 2015

Temp ( °F °C ) Dew Point ( °F °C ) Humidity (%) Winds ( mph kmh ) Pressure ( in mb ) Visibility ( mi km ) Precip ( " mm )
12:15 am 00:15 Clear 37 2.8 32 undefined 82 82 WNW 14 22 30.03 1017 10 16 N/A
12:35 am 00:35 Clear 37 2.8 31 -0.3 80 80 W 13 20 30.03 1017 10 16 N/A
12:55 am 00:55 Clear 36 2 31 -0.5 84 84 W 10 17 30.06 1018 10 16 N/A
1:15 am 01:15 Clear 34 1.3 30 -1 85 85 W 10 17 30.06 1018 10 16 N/A
1:35 am 01:35 Clear 35 1.5 30 -1.1 83 83 W 13 20 30.06 1018 10 16 N/A
1:55 am 01:55 Clear 35 1.5 30 -1.3 82 82 WNW 12 19 30.06 1018 10 16 N/A
2:15 am 02:15 Clear 35 1.5 29 -1.6 80 80 NW 12 19 30.09 1019 10 16 N/A
2:35 am 02:35 Clear 34 1.1 29 -1.6 82 82 WNW 14 22 30.09 1019 10 16 N/A
2:55 am 02:55 Clear 34 1 29 -1.9 81 81 WNW 12 19 30.09 1019 10 16 N/A
3:15 am 03:15 Clear 34 1.1 28 -2 80 80 NW 12 19 30.09 1019 10 16 N/A
3:35 am 03:35 Clear 34 1 28 -2.1 80 80 WNW 13 20 30.09 1019 10 16 N/A
3:55 am 03:55 Clear 34 1 28 -2.3 79 79 WNW 14 22 30.09 1019 10 16 N/A
4:15 am 04:15 Clear 34 1 28 -2.3 79 79 WNW 14 22 30.12 1020 10 16 N/A
4:35 am 04:35 Clear 33 0.7 28 -2.5 79 79 WNW 10 17 30.12 1020 10 16 N/A
4:55 am 04:55 Clear 33 0.7 28 -2.3 81 81 WNW 10 17 30.12 1020 10 16 N/A
5:15 am 05:15 Clear 33 0.8 28 -2.5 79 79 WNW 13 20 30.12 1020 10 16 N/A
5:35 am 05:35 Clear 33 0.6 28 -2.5 80 80 WNW 13 20 30.12 1020 10 16 N/A
5:55 am 05:55 Clear 32 0.1 27 -2.7 82 82 WNW 9 15 30.18 1022 10 16 N/A
6:15 am 06:15 Clear 33 0.7 28 -2.5 79 79 WNW 13 20 30.18 1022 10 16 N/A
6:35 am 06:35 Clear 34 1 28 -2.5 78 78 WNW 15 24 30.21 1023 10 16 N/A
6:55 am 06:55 Clear 33 0.7 28 -2.5 79 79 WNW 14 22 30.21 1023 10 16 N/A
7:15 am 07:15 Clear 33 0.3 27 -2.6 81 81 WNW 10 17 30.21 1023 10 16 N/A
7:35 am 07:35 Sunny 33 0.5 27 -2.6 80 80 WNW 10 17 30.24 1024 10 16 N/A
7:55 am 07:55 Sunny 33 0.8 27 -2.6 78 78 WNW 10 17 30.24 1024 10 16 N/A
8:15 am 08:15 Sunny 34 1.1 28 -2.3 78 78 WNW 10 17 30.27 1025 10 16 N/A
8:35 am 08:35 Sunny 37 2.5 29 -1.9 73 73 WNW 12 19 30.24 1024 10 16 N/A
8:55 am 08:55 Sunny 38 3.3 29 -1.6 71 71 WNW 13 20 30.24 1024 10 16 N/A
9:15 am 09:15 Sunny 40 4.2 29 -1.5 67 67 WNW 14 22 30.27 1025 10 16 N/A
9:35 am 09:35 Sunny 41 5 30 -1.2 65 65 WNW 13 20 30.27 1025 10 16 N/A
9:55 am 09:55 Sunny 41 5.1 30 -1 65 65 WNW 13 20 30.27 1025 10 16 N/A
10:15 am 10:15 Sunny 42 5.7 31 -0.5 65 65 NW 12 19 30.24 1024 10 16 N/A
10:35 am 10:35 Sunny 43 6.2 32 -0.2 64 64 NW 14 22 30.24 1024 10 16 N/A
10:55 am 10:55 Sunny 44 6.9 32 undefined 62 62 WNW 14 22 30.24 1024 10 16 N/A
11:15 am 11:15 Sunny 46 7.8 32 undefined 58 58 WNW 14 22 30.24 1024 10 16 N/A
11:35 am 11:35 Sunny 47 8.6 32 0.2 56 56 WNW 15 24 30.21 1023 10 16 N/A
11:55 am 11:55 Sunny 48 9 32 0.1 54 54 WNW 15 24 30.21 1023 10 16 N/A
12:15 pm 12:15 Sunny 49 9.5 32 undefined 52 52 WNW 16 26 30.21 1023 10 16 N/A
12:35 pm 12:35 Sunny 50 10.1 32 undefined 50 50 WNW 14 22 30.21 1023 10 16 N/A
12:55 pm 12:55 Sunny 51 10.7 32 -0.2 47 47 WNW 16 26 30.21 1023 10 16 N/A
1:15 pm 13:15 Sunny 53 11.4 31 -0.3 45 45 WNW 16 26 30.21 1023 10 16 N/A
1:35 pm 13:35 Sunny 53 11.6 28 -2.2 38 38 NW 14 22 30.18 1022 10 16 N/A
1:55 pm 13:55 Sunny 54 12.1 26 -3.2 35 35 NW 18 30 30.18 1022 10 16 N/A
2:15 pm 14:15 Sunny 54 12.1 24 -4.2 32 32 NW 16 26 30.15 1021 10 16 N/A
2:35 pm 14:35 Sunny 54 12.2 23 -5 30 30 NNW 16 26 30.15 1021 10 16 N/A
2:55 pm 14:55 Sunny 54 12.1 23 -4.9 30 30 NW 15 24 30.15 1021 10 16 N/A
3:15 pm 15:15 Sunny 54 12.2 23 -4.8 30 30 NW 16 26 30.15 1021 10 16 N/A
3:35 pm 15:35 Sunny 52 11 22 -5.4 31 31 NW 16 26 30.18 1022 10 16 N/A
3:55 pm 15:55 Sunny 50 10.2 25 -4.1 37 37 NW 8 13 30.21 1023 10 16 N/A
4:15 pm 16:15 Sunny 52 11 26 -3.5 36 36 NNW 8 13 30.21 1023 10 16 N/A
4:35 pm 16:35 Sunny 51 10.6 27 -3 39 39 NNW 7 11 30.21 1023 10 16 N/A
4:55 pm 16:55 Sunny 49 9.6 28 -2.3 44 44 NNW 7 11 30.21 1023 10 16 N/A
5:15 pm 17:15 Sunny 46 7.8 28 -2.4 49 49 NW 7 11 30.24 1024 10 16 N/A
5:35 pm 17:35 Clear 44 6.5 26 -3.4 50 50 WNW 7 11 30.24 1024 10 16 N/A
5:55 pm 17:55 Clear 41 5.2 28 -2.3 59 59 W 6 9 30.27 1025 10 16 N/A
6:15 pm 18:15 Clear 40 4.7 28 -2.2 61 61 W 7 11 30.27 1025 10 16 N/A
6:35 pm 18:35 Clear 41 5 28 -2.3 60 60 W 6 9 30.27 1025 10 16 N/A
6:55 pm 18:55 Clear 39 4.1 27 -2.9 61 61 W 6 9 30.30 1026 10 16 N/A
7:15 pm 19:15 Clear 35 1.9 27 -2.7 72 72 NNW 3 6 30.33 1027 10 16 N/A
7:35 pm 19:35 Clear 36 2.1 27 -2.7 71 71 NW 5 7 30.33 1027 10 16 N/A
7:55 pm 19:55 Clear 34 1.3 27 -2.7 75 75 WNW 7 11 30.33 1027 10 16 N/A
8:15 pm 20:15 Mostly Cloudy 35 1.4 27 -2.6 75 75 WNW 7 11 30.36 1028 10 16 N/A
8:35 pm 20:35 Cloudy 34 1.2 29 -1.9 80 80 W 6 9 30.36 1028 10 16 N/A
8:55 pm 20:55 Cloudy 36 2.3 28 -2.1 73 73 W 6 9 30.33 1027 10 16 N/A
9:15 pm 21:15 Cloudy 37 2.5 28 -2.3 71 71 W 6 9 30.33 1027 10 16 N/A
9:35 pm 21:35 Cloudy 36 2.1 29 -1.7 76 76 W 5 7 30.36 1028 10 16 N/A
9:55 pm 21:55 Cloudy 35 1.7 30 -1.1 82 82 N N/A 30.36 1028 10 16 N/A
10:15 pm 22:15 Cloudy 35 1.5 31 -0.7 85 85 NNW 3 6 30.36 1028 10 16 N/A
10:35 pm 22:35 Cloudy 35 1.4 30 -1 84 84 NNW 5 7 30.36 1028 10 16 N/A
10:55 pm 22:55 Cloudy 34 1.1 29 -1.6 82 82 NNW 6 9 30.36 1028 10 16 N/A
11:15 pm 23:15 Mostly Cloudy 33 0.5 29 -1.7 85 85 NW 3 6 30.36 1028 10 16 N/A
11:35 pm 23:35 Partly Cloudy 32 0.2 28 -2.4 83 83 WNW 3 6 30.36 1028 10 16 N/A
11:55 pm 23:55 Clear 32 undefined 28 -2.4 84 84 N N/A 30.33 1027 10 16 N/A

Powered by AerisWeather